This is the latest recevied weather packets stored in our database for station/object KC5DAQ-26. If no packets are shown the sender has not sent any weather packets the latest 10 day(s).
| Time | Temp. | Humidity | Pressure | Rain* | Wind** | Luminosity | Snow |
|---|---|---|---|---|---|---|---|
| 1787937775 | 33.33° C | 66% | 1020.3 hPa | 0 mm | - | 100 W/m² | - |
| 1787937717 | 33.33° C | 68% | 1020.2 hPa | 0 mm | - | 100 W/m² | - |
| 1787937655 | 33.33° C | 72% | 1020.1 hPa | 0 mm | - | 100 W/m² | - |
| 1787937595 | 33.33° C | 70% | 1020.2 hPa | 0 mm | - | 100 W/m² | - |
| 1787937536 | 33.33° C | 70% | 1020.3 hPa | 0 mm | - | 100 W/m² | - |
| 1787937477 | 33.33° C | 69% | 1020.3 hPa | 0 mm | - | 100 W/m² | - |
| 1787937417 | 33.33° C | 69% | 1020.3 hPa | 0 mm | - | 100 W/m² | - |
| 1787937356 | 33.33° C | 71% | 1020.3 hPa | 0 mm | - | 109 W/m² | - |
| 1787937295 | 33.33° C | 71% | 1020.3 hPa | 0 mm | - | 128 W/m² | - |
| 1787937236 | 33.33° C | 68% | 1020.3 hPa | 0 mm | - | 111 W/m² | - |
| 1787937175 | 33.33° C | 71% | 1020.2 hPa | 0 mm | - | 98 W/m² | - |
| 1787937116 | 33.33° C | 70% | 1020.2 hPa | 0 mm | - | 99 W/m² | - |
| 1787937057 | 33.33° C | 71% | 1020.3 hPa | 0 mm | - | 99 W/m² | - |
| 1787936995 | 32.78° C | 73% | 1020.3 hPa | 0 mm | - | 99 W/m² | - |
| 1787936936 | 32.78° C | 73% | 1020.3 hPa | 0 mm | - | 97 W/m² | - |
| 1787936875 | 32.78° C | 74% | 1020.4 hPa | 0 mm | - | 99 W/m² | - |
| 1787936815 | 32.78° C | 72% | 1020.3 hPa | 0 mm | - | 99 W/m² | - |
| 1787936755 | 32.78° C | 70% | 1020.3 hPa | 0 mm | - | 99 W/m² | - |
| 1787936698 | 32.78° C | 71% | 1020.3 hPa | 0 mm | - | 100 W/m² | - |
| 1787936636 | 32.78° C | 71% | 1020.4 hPa | 0 mm | - | 100 W/m² | - |
| 1787936576 | 32.78° C | 70% | 1020.4 hPa | 0 mm | - | 230 W/m² | - |
| 1787936516 | 32.78° C | 70% | 1020.5 hPa | 0 mm | - | 742 W/m² | - |
| 1787936455 | 32.22° C | 69% | 1020.5 hPa | 0 mm | - | 782 W/m² | - |
| 1787936395 | 32.78° C | 69% | 1020.5 hPa | 0 mm | - | 809 W/m² | - |
| 1787936335 | 32.78° C | 70% | 1020.5 hPa | 0 mm | - | 830 W/m² | - |
* Rain latest hour (hover to see other rain measurements)
** Current wind speed in m/s (hover to see current wind gust speed)